星链-4370 (STARLINK-4370 )

导读

STARLINK-4370是美国太空探索技术公司Starlink“星链”卫星星座的一员,于2022年7月22日发射升空。星链项目旨在构建全球卫星互联网星座,为全球提供高速宽带互联网服务,该卫星加入星座后,进一步扩充了星链网络的覆盖范围与服务能力。

基本信息
目录编号:
53231
目录名称:
STARLINK-4370
国际标识:
2022-084AU
轨道中心:
EARTH
卫星名称:
星链-4370
卫星全名:
星链-4370 (STARLINK-4370 )
卫星状态:
在轨 (已飞行1512 天)
发射日期:
2022-07-22 UTC
国别 :
美国 (US)
星等 :
--
该卫星已列入 空间交会检测服务 Space Conjunction Data Service (SCDS) ,当前飞行风险评估等级: 无高风险
轨道信息
数据来源 国际轨道数据
星历时间: 2026-09-11T16:00:04+0800
6小时前
查看轨道信息
半长轴: 6848.596km
偏心率: 0.0001703
轨道倾角: 97.284°
近地点辐角 111.614°
升交点赤经 310.183°
平近点角 139.519°
近地点: 469.292km
远地点: 471.626km
周期: 94.007分钟
每日圈数: 15.317943
详细信息
固有亮度:
5
最大亮度:
2.5
卫星平台:
Starlink v1.5
覆盖范围:
全球
运营商:
太空探索技术公司
运营商所在国:
美国
制造商(研发单位):
太空探索技术公司
制造商所在国:
美国
使用方式:
暂无
卫星简介
星链(Starlink)计划是由太空探索技术公司(SpaceX)提出的一个巨型低轨卫星互联网星座项目,计划在2019年至2024年间在太空搭建由约1.2万颗卫星组成的“星链”网络,其中1584颗将部署在地球上空550千米处的近地轨道,并从2020年开始工作。该卫星仍在工作。
2D轨道图
3D轨道图
轨道高度分析图
轨道倾角分析图
轨道综合分析图
查看轨道综合分析图
交会数据列表
事件ID 空间交会对象 最接近时刻(TCA) 交会距离 交会风险概率(CRP) 交会风险指数(CRI) 操作
CDM_260913-025503-644105-323121
2026-09-13T
02:55:49+0000
1.015 km
极远距离
2.634478E-5 中风险 0.63
CDM_260913-223705-171505-323121
2026-09-13T
22:37:44+0000
1.575 km
极远距离
5.299353E-6 低风险 0.49
CDM_260913-113505-113105-323121
2026-09-13T
11:35:56+0000
1.607 km
极远距离
5.25629E-6 低风险 0.49
CDM_260914-001105-171505-323121
2026-09-14T
00:11:46+0000
1.597 km
极远距离
5.075176E-6 低风险 0.49
CDM_260913-140005-171505-323121
2026-09-13T
14:00:34+0000
1.749 km
极远距离
3.829358E-6 低风险 0.47
CDM_260913-160605-323106-625421
2026-09-13T
16:06:51+0000
1.869 km
极远距离
3.42163E-6 低风险 0.46
CDM_260912-212305-323105-379421
2026-09-12T
21:23:18+0000
2.180 km
极远距离
2.312802E-6 低风险 0.42
CDM_260914-004704-832905-323121
2026-09-14T
00:47:57+0000
1.809 km
极远距离
2.07109E-6 低风险 0.41
CDM_260913-210305-171505-323121
2026-09-13T
21:03:42+0000
2.332 km
极远距离
1.870713E-6 低风险 0.4
CDM_260913-152904-868105-323121
2026-09-13T
15:29:21+0000
2.041 km
极远距离
1.681919E-6 低风险 0.4
与全量物体交会距离演化趋势
与全量物体交会风险概率演化趋势